FW2487 Weather Reports


Display with metric or nautical units.
time (UTC)temp
F
wind
direction
speed
MPH
gust
MPH
rain 1hr
in
rain 24hr
in
rain mn
in
humidity
%
barometer
mb
20260510204532 62 290 12.0 24.0 0.00 0.00 0.00 59 1018.5
20260510201533 64 285 12.0 23.0 0.00 0.00 0.00 56 1017.7
20260510200034 66 275 12.0 24.0 0.00 0.00 0.00 56 1017.7
20260510194533 65 283 12.0 24.0 0.00 0.00 0.00 57 1017.6
20260510191535 65 283 13.0 23.0 0.00 0.00 0.00 58 1017.4
20260510190034 65 278 12.0 24.0 0.00 0.00 0.00 58 1017.4
20260510184531 66 277 12.0 21.0 0.00 0.00 0.00 57 1017.3
20260510183033 66 279 10.0 19.0 0.00 0.00 0.00 56 1017.2
20260510181536 66 279 9.0 17.0 0.00 0.00 0.00 56 1017.1
20260510180035 66 279 9.0 19.0 0.00 0.00 0.00 58 1017.0
20260510174531 65 265 5.0 11.0 0.00 0.00 0.00 58 1017.0
20260510173142 65 303 4.0 11.0 0.00 0.00 0.00 60 1017.1
20260510171529 64 96 2.0 4.0 0.00 0.00 0.00 60 1017.0
20260510170031 63 78 1.0 4.0 0.00 0.00 0.00 62 1017.1
20260510163107 60 101 0.0 3.0 0.00 0.00 0.00 67 1017.1
20260510161653 59 78 1.0 3.0 0.00 0.00 0.00 70 1017.1
20260510160034 57 23 1.0 3.0 0.00 0.00 0.00 74 1017.1
20260510154537 56 262 0.0 2.0 0.00 0.00 0.00 76 1017.0
20260510153036 55 180 0.0 0.0 0.00 0.00 0.00 76 1016.9
20260510150034 52 125 2.0 4.0 0.00 0.00 0.00 81 1016.9
20260510144536 50 121 1.0 3.0 0.00 0.00 0.00 83 1016.7
20260510143037 49 2 0.0 2.0 0.00 0.00 0.00 85 1016.5
20260510141611 48 268 0.0 2.0 0.00 0.00 0.00 85 1016.5
20260510140142 45 152 3.0 4.0 0.00 0.00 0.00 86 1016.5
20260510131535 42 133 3.0 4.0 0.00 0.00 0.00 88 1016.3
20260510130037 42 203 2.0 4.0 0.00 0.00 0.00 88 1016.3
20260510124606 42 220 2.0 4.0 0.00 0.00 0.00 88 1016.4
20260510121535 42 158 1.0 5.0 0.00 0.00 0.00 88 1016.7
20260510120032 42 157 5.0 5.0 0.00 0.00 0.00 88 1016.4
20260510114534 41 157 5.0 6.0 0.00 0.00 0.00 88 1016.5
20260510113030 40 132 0.0 4.0 0.00 0.00 0.00 88 1016.4
20260510111533 41 133 1.0 4.0 0.00 0.00 0.00 87 1016.2
20260510110035 42 154 3.0 5.0 0.00 0.00 0.00 87 1016.4
20260510103107 42 151 3.0 4.0 0.00 0.00 0.00 87 1016.6
20260510100036 42 158 2.0 3.0 0.00 0.00 0.00 86 1016.3
20260510094608 43 202 0.0 1.0 0.00 0.00 0.00 86 1016.3
20260510084533 44 157 3.0 5.0 0.00 0.00 0.00 86 1016.8
20260510083034 44 164 2.0 3.0 0.00 0.00 0.00 85 1017.0
20260510081534 45 159 2.0 3.0 0.00 0.00 0.00 84 1017.0
20260510080051 46 157 2.0 3.0 0.00 0.00 0.00 82 1017.1
20260510074534 47 157 1.0 2.0 0.00 0.00 0.00 82 1017.2
20260510073143 47 148 3.0 5.0 0.00 0.00 0.00 83 1017.2
20260510071537 47 164 3.0 4.0 0.00 0.00 0.00 82 1017.3
20260510070035 48 157 2.0 4.0 0.00 0.00 0.00 81 1017.2
20260510064535 48 157 0.0 4.0 0.00 0.00 0.00 80 1017.2
20260510063038 49 153 2.0 4.0 0.00 0.00 0.00 79 1017.1
20260510061529 50 160 1.0 3.0 0.00 0.00 0.00 79 1017.0
20260510060037 50 181 2.0 4.0 0.00 0.00 0.00 79 1017.0
20260510053143 51 141 3.0 5.0 0.00 0.00 0.00 78 1016.9
20260510051650 53 156 3.0 4.0 0.00 0.00 0.00 76 1016.9
20260510050036 54 162 2.0 4.0 0.00 0.00 0.00 74 1016.7
20260510044536 55 196 1.0 5.0 0.00 0.00 0.00 75 1016.6
20260510043036 56 163 4.0 5.0 0.00 0.00 0.00 75 1016.6
20260510041535 57 147 4.0 5.0 0.00 0.00 0.00 76 1016.4
20260510040036 59 156 4.0 5.0 0.00 0.00 0.00 74 1016.2
20260510034533 62 181 2.0 4.0 0.00 0.00 0.00 71 1016.1
20260510033035 63 188 1.0 3.0 0.00 0.00 0.00 68 1016.0
20260510031529 66 110 1.0 3.0 0.00 0.00 0.00 66 1015.9
20260510024607 68 157 2.0 3.0 0.00 0.00 0.00 61 1016.0
20260510023105 69 152 2.0 3.0 0.00 0.00 0.00 56 1016.0
20260510010034 75 308 2.0 5.0 0.00 0.00 0.00 35 1016.4
20260510004534 75 273 2.0 5.0 0.00 0.00 0.00 34 1016.4
20260510003034 75 310 4.0 8.0 0.00 0.00 0.00 38 1016.5
20260510001535 75 335 4.0 9.0 0.00 0.00 0.00 39 1016.5
20260510000035 76 11 5.0 9.0 0.00 0.00 0.00 40 1016.6
20260509234534 77 21 5.0 10.0 0.00 0.00 0.00 39 1016.8
20260509224537 75 4 4.0 8.0 0.00 0.00 0.00 42 1017.7
20260509221537 74 20 6.0 10.0 0.00 0.00 0.00 43 1018.2
20260509214535 73 21 6.0 10.0 0.00 0.00 0.00 46 1018.5
20260509213043 72 16 7.0 11.0 0.00 0.00 0.00 49 1018.7
20260509210152 72 2 3.0 9.0 0.00 0.00 0.00 48 1019.1